Diboll, TX

8:43 AM CST on February 28, 2017 (GMT -0600)
Angelina County

Weather History for KLFK - July, 2013

Change the Weather History Date:

Tuesday, July 2, 2013

  Actual Average Record
Temperature  
Mean Temperature 77 °F 82 °F  
Max Temperature 91 °F 92 °F 104 °F (2009)
Min Temperature 63 °F 72 °F 63 °F (2013)
Degree Days  
Heating Degree Days 0 0  
Month to date heating degree days 0 0  
Since 1 June heating degree days 0 0  
Since 1 July heating degree days 0 0  
Cooling Degree Days 12 17  
Month to date cooling degree days 23 34  
Year to date cooling degree days 1060 955  
Since 1 June cooling degree days 546 486  
Growing Degree Days 27 (Base 50)    
Moisture  
Dew Point 60 °F    
Average Humidity 61    
Maximum Humidity 93    
Minimum Humidity 28    
Precipitation  
Precipitation 0.00 in 0.12 in 1.79 in (1915)
Month to date precipitation 0.00 0.25  
Year to date precipitation 21.00 24.45  
Snow  
Snow 0.00 in - - ()
Month to date snowfall 0.0  
Since 1 June snowfall 0.0  
Since 1 July snowfall 0.0  
Snow Depth -    
Sea Level Pressure  
Sea Level Pressure 29.98 in    
Wind  
Wind Speed 3 mph (NE)    
Max Wind Speed 16 mph    
Max Gust Speed 21 mph    
Visibility 10 miles    
Events      
T = Trace of Precipitation, MM = Missing Value Source: NWS Daily Summary

Daily Weather History Graph

Daily Weather History Graph

Search for Another Location

Airport or City:

Trip Planner

Search our weather history database for the weather conditions in past years. The results will help you decide how hot, cold, wet, or windy it might be!

Date:

Astronomy

Jul. 02, 2013 Rise Set
Actual Time 6:19 AM CDT 8:27 PM CDT
Civil Twilight 5:51 AM CDT 8:54 PM CDT
Nautical Twilight 5:17 AM CDT 9:28 PM CDT
Astronomical Twilight 4:40 AM CDT 10:05 PM CDT
Moon 2:11 AM CDT (7/2) 3:50 PM CDT (7/2)
Length of Visible Light 15h 03m
Length of Day
14h 08m
Waning Crescent, 26% of the Moon is Illuminated
Jul 2
Waning Crescent
Jul 8
New
Jul 15
First Quarter
Jul 22
Full
Jul 29
Last Quarter

Hourly Weather History & Observations

Time (CDT) Temp. Heat Index Dew Point Humidity Pressure Visibility Wind Dir Wind Speed Gust Speed Precip Events Conditions
12:53 AM 66.9 °F - 61.0 °F 81% 29.96 in 10.0 mi Calm Calm - N/A   Clear
1:53 AM 68.0 °F - 60.1 °F 76% 29.95 in 10.0 mi Calm Calm - N/A   Clear
2:53 AM 64.9 °F - 61.0 °F 87% 29.96 in 10.0 mi Calm Calm - N/A   Clear
3:53 AM 66.0 °F - 61.0 °F 84% 29.96 in 10.0 mi Calm Calm - N/A   Clear
4:53 AM 64.0 °F - 61.0 °F 90% 29.97 in 10.0 mi Calm Calm - N/A   Clear
5:53 AM 63.0 °F - 60.1 °F 90% 29.98 in 9.0 mi Calm Calm - N/A   Clear
6:53 AM 64.0 °F - 61.0 °F 90% 30.00 in 9.0 mi Calm Calm - N/A   Clear
7:53 AM 70.0 °F - 62.1 °F 76% 30.01 in 10.0 mi Calm Calm - N/A   Clear
9:53 AM 81.0 °F 82.5 °F 64.0 °F 56% 30.02 in 10.0 mi Calm Calm - N/A   Clear
10:53 AM 82.9 °F 83.7 °F 62.1 °F 49% 30.02 in 10.0 mi Calm Calm - N/A   Clear
11:53 AM 86.0 °F 85.7 °F 60.1 °F 41% 30.02 in 5.0 mi Variable 5.8 mph - N/A   Haze
12:53 PM 88.0 °F 87.6 °F 60.1 °F 39% 30.00 in 10.0 mi NNW 6.9 mph - 0.15 in   Partly Cloudy
1:53 PM 89.1 °F 87.7 °F 57.0 °F 34% 29.99 in 10.0 mi Variable 6.9 mph - N/A   Clear
2:53 PM 90.0 °F 88.6 °F 57.0 °F 33% 29.97 in 10.0 mi North 6.9 mph - N/A   Clear
3:53 PM 90.0 °F 88.1 °F 55.9 °F 31% 29.95 in 10.0 mi Variable 4.6 mph - N/A   Clear
4:53 PM 88.0 °F 86.5 °F 55.9 °F 34% 29.94 in 10.0 mi North 5.8 mph - N/A   Clear
5:53 PM 91.0 °F 88.7 °F 54.0 °F 28% 29.93 in 10.0 mi NNW 5.8 mph - N/A   Clear
6:53 PM 89.1 °F 87.7 °F 57.0 °F 34% 29.94 in 10.0 mi NE 4.6 mph - N/A   Scattered Clouds
7:53 PM 81.0 °F 81.9 °F 62.1 °F 52% 29.96 in 10.0 mi ENE 6.9 mph - N/A   Clear
8:53 PM 77.0 °F - 63.0 °F 62% 29.98 in 10.0 mi ENE 4.6 mph - N/A   Clear
9:53 PM 75.0 °F - 63.0 °F 66% 30.00 in 10.0 mi East 5.8 mph - N/A   Clear
10:53 PM 73.0 °F - 63.0 °F 71% 30.01 in 10.0 mi ENE 3.5 mph - N/A   Clear
11:53 PM 71.1 °F - 63.0 °F 75% 30.01 in 10.0 mi ENE 4.6 mph - N/A   Clear